This is the latest recevied weather packets stored in our database for station/object VE7PRT-1. If no packets are shown the sender has not sent any weather packets the latest 10 day(s).
| Time | Temp. | Humidity | Pressure | Rain* | Wind** | Luminosity | Snow |
|---|---|---|---|---|---|---|---|
| 1787680476 | 19.44° C | 89% | 1014.9 hPa | 0 mm | - | - | - |
| 1787679694 | 19.44° C | 87% | 1014.9 hPa | 0 mm | - | - | - |
| 1787678926 | 20.56° C | 87% | 1014.6 hPa | 0 mm | - | - | - |
| 1787678071 | 20.56° C | 91% | 1014.4 hPa | 0 mm | - | - | - |
| 1787677203 | 19.44° C | 98% | 1014.2 hPa | 0 mm | - | - | - |
| 1787676411 | 18.33° C | 98% | 1014.3 hPa | 0 mm | - | - | - |
| 1787675536 | 17.22° C | 99% | 1014.2 hPa | 0 mm | - | - | - |
| 1787674681 | 16.67° C | 99% | 1014.1 hPa | 0 mm | - | - | - |
| 1787673781 | 16.11° C | 99% | 1014.1 hPa | 0 mm | - | - | - |
| 1787673021 | 16.11° C | 99% | 1014.1 hPa | 0 mm | - | - | - |
| 1787672296 | 16.11° C | 99% | 1014 hPa | 0 mm | - | - | - |
| 1787671563 | 15° C | 99% | 1013.9 hPa | 0 mm | - | - | - |
| 1787670696 | 14.44° C | 99% | 1013.9 hPa | 0 mm | - | - | - |
| 1787669956 | 14.44° C | 99% | 1014 hPa | 0 mm | - | - | - |
| 1787669161 | 13.89° C | 99% | 1013.9 hPa | 0 mm | - | - | - |
| 1787668356 | 13.89° C | 99% | 1013.9 hPa | 0 mm | - | - | - |
| 1787667496 | 13.89° C | 99% | 1013.8 hPa | 0 mm | - | - | - |
| 1787666771 | 13.33° C | 99% | 1013.9 hPa | 0 mm | - | - | - |
| 1787665981 | 13.33° C | 98% | 1014 hPa | 0 mm | - | - | - |
| 1787665116 | 13.33° C | 99% | 1013.7 hPa | 0 mm | - | - | - |
| 1787664371 | 13.33° C | 99% | 1013.6 hPa | 0 mm | - | - | - |
| 1787663516 | 13.33° C | 98% | 1013.5 hPa | 0 mm | - | - | - |
| 1787662711 | 13.33° C | 98% | 1013.6 hPa | 0 mm | - | - | - |
| 1787661956 | 13.33° C | 98% | 1013.5 hPa | 0 mm | - | - | - |
| 1787661121 | 13.33° C | 98% | 1013.6 hPa | 0 mm | - | - | - |
* Rain latest hour (hover to see other rain measurements)
** Current wind speed in m/s (hover to see current wind gust speed)